This demonstration page uses our WeatherBlox Daily Observations layout. Learn more.

Left ArrowRight Arrow

Hourly Observations for May 12, 2020

Temp ( °F °C ) Dew Point ( °F °C ) Humidity (%) Winds ( mph kmh ) Pressure ( in mb ) Visibility ( mi km ) Precip ( " mm )
12:52 am 00:52 Mostly Cloudy 48 8.9 29 -1.7 48 48 W 8 13 30.25 1024 10 16 0.00 0.00
1:52 am 01:52 Mostly Cloudy 47 8.3 31 -0.6 54 54 N 3 6 30.24 1024 10 16 0.00 0.00
2:52 am 02:52 Cloudy 45 7.2 32 0 61 61 NW 5 7 30.23 1024 10 16 0.00 0.00
3:52 am 03:52 Cloudy 45 7.2 33 0.6 63 63 N 5 7 30.21 1023 10 16 0.00 0.00
4:52 am 04:52 Cloudy 46 7.8 33 0.6 61 61 N 7 11 30.21 1023 10 16 0.00 0.00
5:52 am 05:52 Cloudy 45 7.2 34 1.1 66 66 N 5 7 30.23 1024 10 16 0.00 0.00
6:52 am 06:52 Cloudy 46 7.8 32 0 58 58 Calm 30.24 1024 10 16 0.00 0.00
7:52 am 07:52 Cloudy 47 8.3 24 -4.4 41 41 ENE 8 13 30.24 1024 10 16 0.00 0.00
8:52 am 08:52 Cloudy 47 8.3 22 -5.6 37 37 VRB 3 6 30.26 1025 10 16 0.00 0.00
9:52 am 09:52 Cloudy 48 8.9 23 -5 37 37 Calm 30.25 1025 10 16 0.00 0.00
10:52 am 10:52 Cloudy 50 10 21 -6.1 32 32 E 8 13 30.25 1024 10 16 0.00 0.00
11:52 am 11:52 Cloudy 51 10.6 21 -6.1 31 31 E 9 15 30.24 1024 10 16 0.00 0.00
12:52 pm 12:52 Cloudy 54 12.2 23 -5 30 30 ESE 9 15 30.21 1023 10 16 0.00 0.00
1:52 pm 13:52 Cloudy 57 13.9 24 -4.4 28 28 ESE 14 22 30.19 1022 10 16 0.00 0.00
2:52 pm 14:52 Cloudy 59 15 25 -3.9 27 27 ESE 13 20 30.15 1021 10 16 0.00 0.00
3:52 pm 15:52 Cloudy 60 15.6 25 -3.9 26 26 ESE 5 7 30.12 1020 10 16 0.00 0.00
4:52 pm 16:52 Cloudy 61 16.1 27 -2.8 27 27 SSE 8 13 30.10 1019 10 16 0.00 0.00
5:52 pm 17:52 Cloudy 60 15.6 28 -2.2 30 30 SE 13 20 30.09 1019 10 16 0.00 0.00
6:52 pm 18:52 Mostly Cloudy 60 15.6 29 -1.7 31 31 SE 9 15 30.08 1019 10 16 0.00 0.00
7:52 pm 19:52 Mostly Cloudy 59 15 31 -0.6 35 35 SSE 14 22 30.06 1018 10 16 0.00 0.00
8:52 pm 20:52 Mostly Cloudy 57 13.9 33 0.6 41 41 SE 12 19 30.06 1018 10 16 0.00 0.00
9:52 pm 21:52 Mostly Cloudy 54 12.2 33 0.6 45 45 SSE 10 17 30.08 1019 10 16 0.00 0.00
10:52 pm 22:52 Partly Cloudy 51 10.6 34 1.1 52 52 SSE 10 17 30.09 1019 10 16 0.00 0.00
11:52 pm 23:52 Mostly Clear 50 10 34 1.1 54 54 SSE 12 19 30.08 1019 10 16 0.00 0.00

Powered by AerisWeather